sat.trackr.live / text

‹ back to catalog

STARLINK-35015

NORAD 65283 · 2025-184L

PAYLOAD ACTIVE UNKNOWN

§ Identity

Operator
Country
US
Launch date
2025-08-22
Launch site
AFWTR
Launch vehicle
Mass (kg)
RCS (m²)

Purposes: comms

External: N2YO · Heavens-Above · Gunter

§ Orbital elements

Epoch: 2026-09-20T14:23:08.125440Z

Period
93.91 min
Inclination
97.2841°
Eccentricity
0.0000434
Mean motion
15.33455951 rev/d
Perigee alt
465.2 km
Apogee alt
465.8 km
Semi-major
6,843.6 km
B*
3.9677e-4
RAAN
311.6202°
Arg perigee
124.6292°
Mean anomaly
235.4992°
Rev number
6,074

§ Raw data

STARLINK-350151 65283U 25184L   26263.59939960  .00012760  00000+0  39677-3 0  99932 65283  97.2841 311.6202 0000434 124.6292 235.4992 15.33455951 60741

JSON: /api/v1/satellites/65283 · /tle

For live sub-satellite position, see the globe view (requires WebGL).

§ Visibility from observer

Set your observer location to see the next 7 days of passes ≥ 10°. The values pass through the URL so the page stays shareable.

No JS? Fill the form by hand. The geolocation button needs JavaScript.